[[{"header":{"parameterUnit":"m.s-1","parameterCategory":1,"la1":30.2991,"la2":30.254,"lo1":-89.0895,"lo2":-89.0444,"dy":0.0017,"dx":0.0017,"nx":28,"ny":28,"refTime":"2025-06-06T21:00:00:Z","depth":0,"parameterNumber":2,"parameterNumberName":"U-component_of_WINDS"},"data":[0,0,0,0,0,0,0,0,0,0,0,0,0,0,0,0,0,0,0,0,0,0,0,0,0,0,0,0,0,0,0,0,0,0,0,0,0,0,0,0,0,0,0,0,0,0,0,0,0,0,0,0,0,0,0,0,0,0,2.0826,2.0826,0,2.0876,2.0877,2.0877,2.0897,2.0897,2.0896,2.0896,2.0949,2.0951,2.0952,0,0,0,0,0,0,0,0,0,0,0,0,0,2.0751,2.0752,2.0826,2.0826,2.0827,2.0876,2.0877,2.0877,2.0897,2.0897,2.0896,2.0896,2.0949,2.095,2.0952,0,0,0,0,0,0,0,0,0,0,0,0,0,2.0791,2.0753,2.0826,2.0843,2.0845,2.0876,2.0877,2.0878,2.0897,2.0897,2.0896,2.0896,2.0948,2.095,2.0953,2.0971,0,0,2.096,2.0961,0,0,0,0,0,0,0,0,2.0788,2.0793,2.0839,2.0841,2.0844,2.088,2.087,2.0909,2.0897,2.0877,2.0896,2.0896,2.0926,2.093,2.094,2.0974,2.0976,2.096,2.0961,2.0962,2.0963,0,0,0,0,0,0,0,2.0786,2.0791,2.0846,2.084,2.0843,2.0849,2.0855,2.0877,2.0902,2.0879,2.088,2.0886,2.0928,2.0938,2.0942,2.0977,2.096,2.0962,2.0963,2.0964,2.1033,2.1033,0,0,0,0,0,0,2.078,2.0789,2.0844,2.0847,2.0815,2.0851,2.0857,2.0869,2.0902,2.0907,2.0886,2.0887,2.0934,2.0939,2.0944,2.097,2.0962,2.0964,2.0966,2.1032,2.1033,2.1033,0,0,0,0,0,0,2.0778,2.0784,2.0842,2.0819,2.0826,2.0852,2.0865,2.087,2.088,2.0908,2.0912,2.0892,2.0934,2.094,2.0965,2.0972,2.0965,2.0968,2.1032,2.1032,2.1033,2.1022,0,0,0,0,0,0,2.0776,2.0784,2.079,2.0819,2.0828,2.0861,2.0866,2.0871,2.0884,2.0885,2.0914,2.0919,2.0935,2.0962,2.0967,2.0975,2.0969,2.1031,2.1032,2.1033,2.1022,2.1022,2.1022,0,0,0,0,0,2.0773,2.0784,2.079,2.0796,2.0835,2.0861,2.0867,2.0884,2.0884,2.0892,2.091,2.0918,2.0971,2.0964,2.0971,2.0979,2.1031,2.1032,2.1033,2.1021,2.1022,2.1022,0,0,0,0,0,0,2.0754,2.0788,2.0795,2.0815,2.0835,2.0865,2.0874,2.0883,2.0904,2.0904,2.0926,2.0932,2.0956,2.097,2.0962,2.1002,2.1002,2.1004,2.0991,2.0991,2.0992,2.0988,2.0971,0,0,0,0,0,2.0753,2.077,2.0799,2.0814,2.0824,2.0847,2.0859,2.0871,2.0893,2.0902,2.0922,2.0944,2.0966,2.098,2.1001,2.1025,2.1033,2.1034,2.1035,2.1035,2.1036,2.1054,2.1056,2.1036,2.1036,2.1036,0,0,2.0749,2.077,2.0779,2.0811,2.0828,2.0847,2.0854,2.0873,2.0888,2.0905,2.093,2.0946,2.0972,2.0997,2.1009,2.101,2.1044,2.1036,2.1036,2.1038,2.1055,2.1057,2.1058,2.1037,2.1037,2.1037,0,0,2.0752,2.0769,2.0785,2.0802,2.0829,2.0845,2.0849,2.0878,2.0889,2.0915,2.0929,2.0948,2.0985,2.1004,2.1018,2.1035,2.1044,2.1041,2.1042,2.1059,2.1061,2.1062,2.107,2.1072,2.1043,2.1043,2.1043,0,2.0744,2.0772,2.0792,2.0811,2.0826,2.0843,2.0861,2.0878,2.091,2.092,2.0921,2.097,2.0989,2.102,2.1025,2.1035,2.1043,2.1037,2.1059,2.106,2.1062,2.107,2.1073,2.1042,2.1042,2.1042,2.1042,0,2.0763,2.0783,2.0793,2.0824,2.0841,2.0859,2.0883,2.0897,2.0909,2.0926,2.0954,2.0978,2.1006,2.1015,2.1026,2.105,2.105,2.1054,2.1055,2.1063,2.1071,2.1074,2.1042,2.1042,2.1042,2.1042,0,0,2.0753,2.0797,2.0801,2.0817,2.0849,2.0866,2.0887,2.0915,2.0928,2.0951,2.0971,2.1004,2.101,2.1026,2.104,2.1055,2.107,2.1058,2.106,2.1061,2.1101,2.1097,2.11,2.1077,2.1077,2.1078,2.1099,0,2.0761,2.0798,2.0818,2.0847,2.0867,2.0887,2.0906,2.0929,2.0947,2.0968,2.0988,2.1012,2.1016,2.1027,2.1043,2.1064,2.1078,2.1063,2.1097,2.1098,2.109,2.1104,2.1099,2.1118,2.1102,2.1102,2.1103,0,2.0774,2.0798,2.083,2.0864,2.0873,2.0889,2.0919,2.0938,2.0967,2.0979,2.1,2.1015,2.1041,2.1041,2.1078,2.1068,2.1084,2.1097,2.1099,2.1102,2.1101,2.1109,2.1124,2.1127,2.1107,2.1107,2.1107,0,2.0766,2.0806,2.0831,2.0844,2.0883,2.0895,2.0912,2.094,2.0957,2.0984,2.0996,2.1025,2.1041,2.1065,2.1089,2.1086,2.1125,2.1126,2.1138,2.1138,2.1144,2.1144,2.1163,2.1154,2.1154,2.1154,2.1154,0,2.0773,2.0792,2.0828,2.0843,2.0866,2.089,2.0913,2.0932,2.0958,2.098,2.0999,2.1018,2.1048,2.1073,2.1092,2.1122,2.1129,2.1142,2.1146,2.114,2.1138,2.115,2.115,2.1155,2.1154,2.1154,2.1154,0,2.0766,2.079,2.0819,2.0856,2.0865,2.0881,2.0913,2.093,2.0951,2.0978,2.0986,2.1018,2.1048,2.1075,2.1115,2.1128,2.116,2.1165,2.115,2.1152,2.1163,2.1162,2.1191,2.1197,2.1183,2.1183,2.1183,0,2.0769,2.0784,2.0823,2.0838,2.0856,2.088,2.0898,2.0924,2.0943,2.0979,2.0993,2.1025,2.1052,2.11,2.1128,2.116,2.1167,2.1176,2.1172,2.1167,2.117,2.1168,2.1172,2.1175,2.1175,2.1175,2.1175,0,2.0772,2.0784,2.0809,2.0839,2.086,2.0885,2.0911,2.0923,2.0955,2.0976,2.1007,2.1028,2.1071,2.1103,2.1139,2.116,2.1174,2.1177,2.1181,2.1175,2.1166,2.1173,2.1151,2.1175,2.1175,2.1175,2.1175,2.1175,2.0771,2.0786,2.0817,2.0845,2.0868,2.0893,2.0912,2.0935,2.0962,2.0998,2.1013,2.1046,2.1079,2.1129,2.115,2.1178,2.118,2.1186,2.1188,2.1189,2.1189,2.1162,2.1185,2.1185,2.1185,2.1185,2.1185,0,2.0776,2.0797,2.0823,2.0859,2.0883,2.0894,2.0925,2.0944,2.0972,2.1002,2.1029,2.1067,2.1101,2.1133,2.1168,2.1185,2.1193,2.1194,2.1193,2.1198,2.1184,2.1177,2.1187,2.1187,2.1187,2.1187,2.1187,2.1187,2.0781,2.0809,2.0826,2.0867,2.089,2.0921,2.0938,2.0963,2.0987,2.1029,2.1056,2.1077,2.1109,2.1148,2.118,2.119,2.1202,2.1202,2.1213,2.1199,2.1198,2.1198,2.1191,2.1204,2.1204,2.1224,2.1224,2.1224]},{"header":{"parameterUnit":"m.s-1","parameterCategory":1,"la1":30.2991,"la2":30.254,"lo1":-89.0895,"lo2":-89.0444,"dy":0.0017,"dx":0.0017,"nx":28,"ny":28,"refTime":"2025-06-06T21:00:00:Z","depth":0,"parameterNumber":3,"parameterNumberName":"V-component_of_WINDS"},"data":[0,0,0,0,0,0,0,0,0,0,0,0,0,0,0,0,0,0,0,0,0,0,0,0,0,0,0,0,0,0,0,0,0,0,0,0,0,0,0,0,0,0,0,0,0,0,0,0,0,0,0,0,0,0,0,0,0,0,4.5932,4.5934,0,4.61,4.6102,4.6104,4.6153,4.6152,4.6152,4.6151,4.6315,4.632,4.6326,0,0,0,0,0,0,0,0,0,0,0,0,0,4.5648,4.5653,4.5932,4.5934,4.5936,4.61,4.6102,4.6104,4.6153,4.6152,4.6151,4.615,4.6314,4.632,4.6326,0,0,0,0,0,0,0,0,0,0,0,0,0,4.5789,4.5654,4.5931,4.598,4.5987,4.6099,4.6102,4.6105,4.6154,4.6152,4.6151,4.615,4.6312,4.6319,4.6327,4.6401,0,0,4.6351,4.6354,0,0,0,0,0,0,0,0,4.5781,4.5799,4.5971,4.5977,4.5984,4.6105,4.6062,4.6204,4.6154,4.609,4.6151,4.6149,4.6246,4.6259,4.6293,4.6408,4.6416,4.6351,4.6356,4.6359,4.6362,0,0,0,0,0,0,0,4.5771,4.5792,4.5998,4.5974,4.5982,4.5992,4.6011,4.6089,4.6173,4.6095,4.6099,4.6119,4.6249,4.6285,4.6297,4.6418,4.6351,4.6358,4.6363,4.6366,4.6604,4.6606,0,0,0,0,0,0,4.5754,4.5784,4.5993,4.6003,4.5877,4.5998,4.6019,4.6067,4.6172,4.6187,4.612,4.6121,4.6273,4.6288,4.6303,4.6398,4.6359,4.6367,4.6371,4.6603,4.6605,4.6606,0,0,0,0,0,0,4.5747,4.5772,4.5986,4.5895,4.5923,4.6005,4.6058,4.6071,4.6108,4.6191,4.6205,4.6142,4.6272,4.6292,4.6377,4.6405,4.637,4.6377,4.6601,4.6603,4.6606,4.6588,0,0,0,0,0,0,4.5739,4.5769,4.5799,4.5895,4.5928,4.6059,4.606,4.6075,4.6122,4.6124,4.6216,4.6229,4.6273,4.6365,4.6385,4.6415,4.6383,4.6599,4.6602,4.6605,4.6586,4.6589,4.6592,0,0,0,0,0,4.5729,4.5785,4.5801,4.5825,4.5967,4.606,4.6079,4.613,4.6124,4.6154,4.6208,4.6226,4.6398,4.6374,4.6396,4.6429,4.6597,4.6601,4.6605,4.6585,4.6589,4.6592,0,0,0,0,0,0,4.5687,4.5799,4.5817,4.5907,4.5974,4.6068,4.6108,4.6132,4.62,4.6199,4.6258,4.6278,4.6359,4.6402,4.6372,4.6507,4.6498,4.6507,4.6475,4.648,4.6483,4.647,4.639,0,0,0,0,0,4.5689,4.5758,4.585,4.592,4.5954,4.6025,4.6067,4.6102,4.6173,4.62,4.626,4.6327,4.6396,4.644,4.6508,4.6593,4.6614,4.6626,4.6629,4.6631,4.6637,4.6687,4.6694,4.6619,4.6619,4.6619,0,0,4.5692,4.5762,4.5801,4.5914,4.597,4.6039,4.6049,4.6119,4.6171,4.621,4.6296,4.6342,4.642,4.6505,4.6546,4.6544,4.6663,4.6636,4.6637,4.6642,4.6691,4.6699,4.6705,4.6621,4.6621,4.662,0,0,4.5734,4.5794,4.586,4.5917,4.6003,4.6051,4.6067,4.6159,4.6192,4.6279,4.6311,4.6371,4.6489,4.6544,4.6587,4.6652,4.6672,4.6672,4.6687,4.6735,4.6741,4.6746,4.677,4.6778,4.6678,4.6678,4.6678,0,4.5727,4.5833,4.589,4.5961,4.601,4.6053,4.612,4.6171,4.6274,4.6306,4.6303,4.6454,4.6509,4.6609,4.6625,4.6658,4.6678,4.6662,4.6736,4.6742,4.6748,4.6772,4.678,4.6678,4.6678,4.6678,4.6678,0,4.5821,4.5894,4.5936,4.6039,4.6092,4.616,4.6226,4.6274,4.6303,4.6351,4.6439,4.6507,4.6591,4.6617,4.6645,4.6722,4.6718,4.6724,4.6717,4.6754,4.6777,4.6787,4.6677,4.6678,4.6678,4.6678,0,0,4.5839,4.5975,4.5989,4.6037,4.6137,4.6194,4.6264,4.6349,4.6389,4.6458,4.6518,4.6618,4.6626,4.6675,4.671,4.6752,4.6801,4.6753,4.6756,4.6761,4.6891,4.6886,4.6896,4.6815,4.6817,4.6818,4.6884,0,4.5894,4.6024,4.6079,4.6183,4.6252,4.6294,4.6356,4.6423,4.6469,4.6533,4.6583,4.6654,4.6658,4.6688,4.6731,4.6786,4.6828,4.6781,4.687,4.6873,4.6851,4.6908,4.6903,4.6962,4.6894,4.6895,4.6897,0,4.5975,4.605,4.6162,4.6256,4.6286,4.6341,4.6424,4.6485,4.6562,4.6593,4.6649,4.6683,4.6757,4.6745,4.6849,4.6816,4.6856,4.6888,4.6891,4.6902,4.6887,4.692,4.6982,4.6991,4.6911,4.691,4.6909,0,4.5979,4.6106,4.6191,4.6231,4.6342,4.6379,4.6427,4.6503,4.6551,4.6623,4.6655,4.6734,4.6777,4.6836,4.689,4.6876,4.6988,4.698,4.7016,4.7014,4.7037,4.7035,4.7107,4.7061,4.7061,4.7061,4.7061,0,4.6035,4.6102,4.6195,4.6247,4.6323,4.6385,4.6458,4.6508,4.6576,4.6638,4.6678,4.6734,4.6801,4.6866,4.6908,4.6988,4.7006,4.7033,4.7044,4.703,4.7027,4.7057,4.7055,4.7063,4.7063,4.7062,4.7062,0,4.6051,4.6116,4.6212,4.6311,4.6337,4.6389,4.6473,4.6525,4.6574,4.6652,4.6673,4.675,4.6829,4.6889,4.6989,4.7017,4.7103,4.7113,4.7078,4.7083,4.7116,4.7113,4.721,4.7226,4.7168,4.7169,4.7169,0,4.6083,4.6136,4.6242,4.6288,4.6337,4.6409,4.646,4.6522,4.6573,4.6667,4.6707,4.6789,4.6858,4.6982,4.7045,4.7123,4.7136,4.7165,4.7148,4.7134,4.7138,4.7135,4.7141,4.7167,4.7167,4.7168,4.7168,0,4.6132,4.6163,4.6236,4.6322,4.6382,4.6451,4.6521,4.6556,4.663,4.6686,4.6769,4.6823,4.6928,4.7009,4.7094,4.7141,4.7167,4.7173,4.7186,4.7173,4.7151,4.7165,4.7085,4.717,4.717,4.717,4.717,4.717,4.6158,4.6209,4.6293,4.6373,4.6433,4.6499,4.6553,4.6611,4.6682,4.6775,4.6807,4.6893,4.697,4.7087,4.7135,4.7202,4.7203,4.722,4.7225,4.7229,4.7229,4.714,4.7217,4.7217,4.7217,4.7218,4.7218,0,4.6211,4.6268,4.6342,4.6441,4.6504,4.6527,4.6606,4.6657,4.6733,4.6804,4.6873,4.6969,4.7049,4.712,4.7203,4.7243,4.7257,4.7262,4.726,4.7271,4.7222,4.7204,4.725,4.725,4.725,4.725,4.725,4.725,4.6246,4.6334,4.6374,4.6492,4.6548,4.6635,4.6679,4.6739,4.6797,4.6903,4.6971,4.7018,4.709,4.7178,4.7252,4.7271,4.73,4.7303,4.7325,4.7278,4.7274,4.727,4.7254,4.7309,4.7309,4.7368,4.7369,4.7369]}]]